Flag for United Kingdom Weather past 2 weeks in Swanage, England, United Kingdom

Now
81 °F

Sunny.


Feels Like: 80 °F
Forecast: 54 / 71 °F
Wind: 13 mph from East

Location: Bournemouth Airport

Current Time: Jul 3, 2015 at 4:56:39 PM

Latest Report: Jul 3, 2015 at 4:20 PM


Visibility: 10 mi

Pressure: 30.12 "Hg

Humidity: 39%

Dew point: 54 °F

Location of SwanageLocation

Historic Weather in Swanage — Graph

°F

Swanage temperature yesterday

Maximum temperature yesterday: 70 °F (at 5:50 PM)
Minimum temperature yesterday: 52 °F (at 11:50 PM)
Average temperature yesterday: 63 °F

Past Weeks' High & Low Weather Summary

 TemperatureHumidityPressure
High84 °F (Jul 1, 12:50 PM)100% (Jun 24, 6:50 AM)30.27 "Hg (Jun 24, 6:50 AM)
Low46 °F (Jun 19, 5:20 AM)36% (Jun 19, 3:20 PM)29.80 "Hg (Jul 1, 12:50 PM)
Average63 °F71%30.09 "Hg
* Reported Jun 18 3:20 PM — Jul 3 3:20 PM, Swanage, Weather by CustomWeather, © 2015

Note: Actual official high and low records may vary slightly from our data, if they occured in-between our weather recording intervals... More about our weather records

Advertising

Swanage weather history for previous 24 hours

 ConditionsComfort  
Time TempWeatherWind HumidityBarometerVisibility
3:20 PM
Fri, Jul 3
77 °FSunny.10 mph42%30.12 "Hg10 mi
2:50 PM75 °FPassing clouds.12 mph41%30.15 "HgN/A
2:20 PM75 °FSunny.13 mph41%30.15 "Hg10 mi
1:50 PM75 °FSunny.13 mph41%30.15 "Hg10 mi
1:20 PM75 °FSunny.12 mph41%30.18 "Hg10 mi
12:50 PM73 °FSunny.12 mph44%30.18 "Hg10 mi
12:20 PM73 °FPassing clouds.9 mph44%30.21 "HgN/A
11:50 AM72 °FPassing clouds.10 mph47%30.24 "HgN/A
11:20 AM72 °FSunny.12 mph47%30.24 "Hg10 mi
10:50 AM72 °FSunny.12 mph47%30.24 "Hg10 mi
10:20 AM70 °FSunny.10 mph50%30.24 "Hg10 mi
9:50 AM68 °FSunny.10 mph60%30.27 "Hg10 mi
9:20 AM68 °FSunny.10 mph60%30.27 "Hg10 mi
8:50 AM64 °FSunny.12 mph73%30.27 "Hg10 mi
8:20 AM61 °FSunny.6 mph83%30.27 "Hg10 mi
7:50 AM59 °FSunny.6 mph82%30.27 "Hg10 mi
7:20 AM54 °FSunny.1 mph88%30.27 "Hg10 mi
6:50 AM52 °FSunny.2 mph94%30.27 "Hg10 mi
6:20 AM50 °FSunny.1 mph94%30.27 "Hg10 mi
5:20 AM48 °FFog.1 mph94%30.27 "HgN/A
4:50 AM50 °FClear.1 mph88%30.27 "HgN/A
1:20 AM50 °FClear.2 mph88%30.24 "Hg10 mi
11:50 PM
Thu, Jul 2
52 °FClear.2 mph94%30.24 "Hg10 mi
11:20 PM55 °FClear.2 mph88%30.24 "Hg10 mi
10:20 PM57 °FSunny.1 mph82%30.24 "Hg10 mi
9:50 PM59 °FSunny.2 mph82%30.21 "Hg10 mi
9:20 PM61 °FSunny.5 mph72%30.21 "Hg10 mi
8:50 PM64 °FSunny.5 mph68%30.21 "Hg10 mi
8:20 PM66 °FSunny.9 mph60%30.18 "Hg10 mi
7:50 PM68 °FSunny.7 mph64%30.18 "Hg10 mi
7:20 PM68 °FSunny.8 mph60%30.18 "Hg10 mi
6:50 PM70 °FPassing clouds.12 mph57%30.15 "HgN/A
6:20 PM70 °FPassing clouds.3 mph64%30.15 "HgN/A
5:50 PM70 °FPassing clouds.3 mph60%30.12 "HgN/A
5:20 PM68 °FPassing clouds.7 mph60%30.12 "HgN/A
4:50 PM66 °FPassing clouds.9 mph68%30.12 "HgN/A
4:20 PM63 °FScattered clouds.14 mph88%30.12 "HgN/A
Weather by CustomWeather, © 2015

See weather overviewHow to use our weather pages